• Em Portugal
  • Lista de países
  • Para 7 dias
  • Temperatura da água
  • Mapas de satélite
  • Mapa do tempo
  • Widgets de tempo
  • user-avatar
    Iniciar Sessão

    Previsão horária em Amar

    Hoje, 22 Junho, Sexta-feira

    Tempo Temperatura Precipitação Vento Pressão Humidade
    00:00 +39°C° 0 mm 8 m/s 749 mmHg 29%
    01:00 +39°C° 0 mm 8 m/s 748 mmHg 31%
    02:00 +38°C° 0 mm 8 m/s 748 mmHg 32%
    03:00 +38°C° 0 mm 9 m/s 748 mmHg 34%
    04:00 +38°C° 0 mm 9 m/s 749 mmHg 35%
    05:00 +37°C° 0 mm 9 m/s 749 mmHg 36%
    06:00 +37°C° 0 mm 8 m/s 749 mmHg 37%
    07:00 +39°C° 0 mm 9 m/s 749 mmHg 32%
    08:00 +40°C° 0 mm 9 m/s 749 mmHg 27%
    09:00 +42°C° 0 mm 9 m/s 749 mmHg 22%
    10:00 +43°C° 0 mm 9 m/s 749 mmHg 21%
    11:00 +44°C° 0 mm 9 m/s 749 mmHg 19%
    12:00 +44°C° 0 mm 9 m/s 749 mmHg 17%
    13:00 +44°C° 0 mm 9 m/s 748 mmHg 18%
    14:00 +44°C° 0 mm 9 m/s 748 mmHg 19%
    15:00 +44°C° 0 mm 9 m/s 748 mmHg 20%
    16:00 +43°C° 0 mm 8 m/s 748 mmHg 21%
    17:00 +41°C° 0 mm 8 m/s 747 mmHg 22%
    18:00 +40°C° 0 mm 7 m/s 747 mmHg 23%
    19:00 +40°C° 0 mm 6 m/s 747 mmHg 25%
    20:00 +39°C° 0 mm 5 m/s 748 mmHg 26%
    21:00 +37°C° 0 mm 4 m/s 748 mmHg 28%
    22:00 +37°C° 0 mm 4 m/s 748 mmHg 27%
    23:00 +37°C° 0 mm 4 m/s 748 mmHg 27%

    Amanhã, 23 Junho, Sábado

    Tempo Temperatura Precipitação Vento Pressão Humidade
    00:00 +37°C° 0 mm 4 m/s 747 mmHg 26%
    01:00 +36°C° 0 mm 5 m/s 747 mmHg 26%
    02:00 +36°C° 0 mm 5 m/s 747 mmHg 27%
    03:00 +36°C° 0 mm 6 m/s 747 mmHg 27%
    04:00 +36°C° 0 mm 7 m/s 747 mmHg 30%
    05:00 +36°C° 0 mm 7 m/s 748 mmHg 32%
    06:00 +37°C° 0 mm 8 m/s 748 mmHg 35%
    07:00 +39°C° 0 mm 8 m/s 748 mmHg 32%
    08:00 +40°C° 0 mm 9 m/s 749 mmHg 29%
    09:00 +43°C° 0 mm 9 m/s 749 mmHg 26%
    10:00 +43°C° 0 mm 9 m/s 749 mmHg 24%
    11:00 +44°C° 0 mm 9 m/s 749 mmHg 22%
    12:00 +45°C° 0 mm 9 m/s 748 mmHg 20%
    13:00 +44°C° 0 mm 9 m/s 748 mmHg 21%
    14:00 +44°C° 0 mm 9 m/s 748 mmHg 21%
    15:00 +44°C° 0 mm 9 m/s 747 mmHg 22%
    16:00 +43°C° 0 mm 8 m/s 747 mmHg 24%
    17:00 +41°C° 0 mm 7 m/s 747 mmHg 25%
    18:00 +40°C° 0 mm 7 m/s 747 mmHg 27%
    19:00 +39°C° 0 mm 5 m/s 747 mmHg 28%
    20:00 +37°C° 0 mm 4 m/s 747 mmHg 30%
    21:00 +37°C° 0 mm 3 m/s 748 mmHg 31%
    22:00 +36°C° 0 mm 3 m/s 748 mmHg 30%
    23:00 +36°C° 0 mm 3 m/s 748 mmHg 28%

    Depois de amanhã, 24 Junho, Domingo

    Tempo Temperatura Precipitação Vento Pressão Humidade
    00:00 +36°C° 0 mm 4 m/s 748 mmHg 27%
    01:00 +36°C° 0 mm 4 m/s 747 mmHg 27%
    02:00 +36°C° 0 mm 4 m/s 747 mmHg 28%
    03:00 +36°C° 0 mm 5 m/s 747 mmHg 28%
    04:00 +36°C° 0 mm 5 m/s 747 mmHg 28%
    05:00 +36°C° 0 mm 5 m/s 748 mmHg 28%
    06:00 +36°C° 0 mm 6 m/s 748 mmHg 29%
    07:00 +39°C° 0 mm 6 m/s 748 mmHg 27%
    08:00 +41°C° 0 mm 6 m/s 749 mmHg 25%
    09:00 +43°C° 0 mm 7 m/s 749 mmHg 23%
    10:00 +44°C° 0 mm 7 m/s 749 mmHg 22%
    11:00 +45°C° 0 mm 7 m/s 749 mmHg 20%
    12:00 +46°C° 0 mm 7 m/s 748 mmHg 18%
    13:00 +46°C° 0 mm 7 m/s 748 mmHg 19%
    14:00 +45°C° 0 mm 7 m/s 748 mmHg 20%
    15:00 +45°C° 0 mm 7 m/s 747 mmHg 20%
    16:00 +44°C° 0 mm 7 m/s 747 mmHg 23%
    17:00 +42°C° 0 mm 6 m/s 747 mmHg 25%
    18:00 +41°C° 0 mm 6 m/s 747 mmHg 28%
    19:00 +40°C° 0 mm 5 m/s 748 mmHg 30%
    20:00 +38°C° 0 mm 4 m/s 748 mmHg 33%
    21:00 +37°C° 0 mm 3 m/s 748 mmHg 35%
    22:00 +37°C° 0 mm 3 m/s 748 mmHg 34%
    23:00 +36°C° 0 mm 2 m/s 748 mmHg 32%

    25 Junho, Segunda-feira

    Tempo Temperatura Precipitação Vento Pressão Humidade
    00:00 +36°C° 0 mm 2 m/s 748 mmHg 31%
    01:00 +36°C° 0 mm 3 m/s 747 mmHg 31%
    02:00 +36°C° 0 mm 3 m/s 747 mmHg 31%
    03:00 +35°C° 0 mm 4 m/s 747 mmHg 31%
    04:00 +36°C° 0 mm 4 m/s 747 mmHg 30%
    05:00 +36°C° 0 mm 4 m/s 748 mmHg 29%
    06:00 +36°C° 0 mm 4 m/s 748 mmHg 28%
    07:00 +39°C° 0 mm 5 m/s 748 mmHg 23%
    08:00 +41°C° 0 mm 5 m/s 748 mmHg 19%
    09:00 +43°C° 0 mm 5 m/s 748 mmHg 14%
    10:00 +45°C° 0 mm 5 m/s 748 mmHg 15%
    11:00 +46°C° 0 mm 5 m/s 748 mmHg 15%
    12:00 +47°C° 0 mm 5 m/s 747 mmHg 16%
    13:00 +46°C° 0 mm 5 m/s 747 mmHg 18%
    14:00 +46°C° 0 mm 6 m/s 747 mmHg 20%
    15:00 +46°C° 0 mm 6 m/s 746 mmHg 22%
    16:00 +45°C° 0 mm 6 m/s 746 mmHg 24%
    17:00 +44°C° 0 mm 6 m/s 746 mmHg 26%
    18:00 +42°C° 0 mm 5 m/s 746 mmHg 28%
    19:00 +41°C° 0 mm 5 m/s 746 mmHg 30%
    20:00 +40°C° 0 mm 4 m/s 746 mmHg 31%
    21:00 +38°C° 0 mm 3 m/s 747 mmHg 33%
    22:00 +38°C° 0 mm 3 m/s 746 mmHg 32%
    23:00 +38°C° 0 mm 3 m/s 746 mmHg 30%

    26 Junho, Terça-feira

    Tempo Temperatura Precipitação Vento Pressão Humidade
    00:00 +37°C° 0 mm 4 m/s 746 mmHg 29%
    01:00 +37°C° 0 mm 4 m/s 745 mmHg 28%
    02:00 +37°C° 0 mm 4 m/s 745 mmHg 27%
    03:00 +37°C° 0 mm 4 m/s 745 mmHg 27%
    04:00 +37°C° 0 mm 5 m/s 745 mmHg 26%
    05:00 +37°C° 0 mm 5 m/s 745 mmHg 25%
    06:00 +37°C° 0 mm 5 m/s 746 mmHg 25%
    07:00 +40°C° 0 mm 6 m/s 746 mmHg 22%
    08:00 +42°C° 0 mm 6 m/s 746 mmHg 19%
    09:00 +45°C° 0 mm 7 m/s 746 mmHg 17%
    10:00 +46°C° 0 mm 7 m/s 746 mmHg 17%
    11:00 +47°C° 0 mm 7 m/s 745 mmHg 18%
    12:00 +49°C° 0 mm 7 m/s 745 mmHg 18%
    13:00 +47°C° 0 mm 7 m/s 745 mmHg 19%
    14:00 +47°C° 0 mm 7 m/s 744 mmHg 19%
    15:00 +47°C° 0 mm 7 m/s 744 mmHg 19%
    16:00 +46°C° 0 mm 7 m/s 744 mmHg 21%
    17:00 +45°C° 0 mm 6 m/s 744 mmHg 23%
    18:00 +44°C° 0 mm 6 m/s 744 mmHg 25%
    19:00 +42°C° 0 mm 5 m/s 744 mmHg 27%
    20:00 +41°C° 0 mm 4 m/s 744 mmHg 28%
    21:00 +39°C° 0 mm 3 m/s 745 mmHg 30%
    22:00 +39°C° 0 mm 3 m/s 744 mmHg 30%
    23:00 +38°C° 0 mm 2 m/s 744 mmHg 29%

    27 Junho, Quarta-feira

    Tempo Temperatura Precipitação Vento Pressão Humidade
    00:00 +38°C° 0 mm 2 m/s 744 mmHg 29%
    01:00 +37°C° 0 mm 2 m/s 744 mmHg 30%
    02:00 +37°C° 0 mm 2 m/s 744 mmHg 31%
    03:00 +36°C° 0 mm 2 m/s 743 mmHg 31%
    04:00 +37°C° 0 mm 2 m/s 744 mmHg 28%
    05:00 +38°C° 0 mm 3 m/s 744 mmHg 26%
    06:00 +38°C° 0 mm 3 m/s 745 mmHg 23%
    07:00 +41°C° 0 mm 4 m/s 745 mmHg 22%
    08:00 +43°C° 0 mm 5 m/s 745 mmHg 22%
    09:00 +45°C° 0 mm 6 m/s 745 mmHg 21%
    10:00 +46°C° 0 mm 6 m/s 745 mmHg 23%
    11:00 +46°C° 0 mm 6 m/s 745 mmHg 25%
    12:00 +47°C° 0 mm 7 m/s 745 mmHg 26%
    13:00 +46°C° 0 mm 7 m/s 744 mmHg 27%
    14:00 +46°C° 0 mm 6 m/s 744 mmHg 28%
    15:00 +46°C° 0 mm 6 m/s 744 mmHg 29%
    16:00 +45°C° 0 mm 6 m/s 744 mmHg 32%
    17:00 +43°C° 0 mm 5 m/s 744 mmHg 34%
    18:00 +42°C° 0 mm 5 m/s 744 mmHg 37%
    19:00 +41°C° 0 mm 4 m/s 744 mmHg 37%
    20:00 +39°C° 0 mm 3 m/s 744 mmHg 38%
    21:00 +38°C° 0 mm 3 m/s 744 mmHg 38%
    22:00 +38°C° 0 mm 2 m/s 744 mmHg 36%
    23:00 +38°C° 0 mm 2 m/s 744 mmHg 33%
    Mostrar mais